sat.trackr.live / text

‹ back to catalog

STARLINK-32468

NORAD 62149 · 2024-224L

PAYLOAD ACTIVE UNKNOWN

§ Identity

Operator
Country
US
Launch date
2024-11-30
Launch site
AFETR
Launch vehicle
Mass (kg)
RCS (m²)

Purposes: comms

External: N2YO · Heavens-Above · Gunter

§ Orbital elements

Epoch: 2026-09-21T08:19:11.316000Z

Period
94.27 min
Inclination
43.0031°
Eccentricity
0.0001982
Mean motion
15.27579543 rev/d
Perigee alt
481.7 km
Apogee alt
484.4 km
Semi-major
6,861.2 km
B*
3.0157e-4
RAAN
133.1016°
Arg perigee
264.8958°
Mean anomaly
95.1667°
Rev number
10,224

§ Raw data

STARLINK-324681 62149U 24224L   26264.34665875  .00008045  00000+0  30157-3 0  99952 62149  43.0031 133.1016 0001982 264.8958  95.1667 15.27579543102243

JSON: /api/v1/satellites/62149 · /tle

For live sub-satellite position, see the globe view (requires WebGL).

§ Visibility from observer

Set your observer location to see the next 7 days of passes ≥ 10°. The values pass through the URL so the page stays shareable.

No JS? Fill the form by hand. The geolocation button needs JavaScript.